Regional Weather Roundup
Issued by NWS Albany, NY

Home | Current Version | Previous Version | Graphics & Text | Print | Product List | Glossary Off
Versions: 1 2 3 4 5 6 7 8 9 10 11 12 13 14 15 16 17 18 19 20 21 22 23 24 25 26 27 28 29 30 31 32 33 34 35 36 37 38 39 40 41 42 43 44 45 46 47 48 49 50

000
ASUS41 KALY 282010
RWRALY

NEW YORK STATE HOURLY WEATHER ROUNDUP
NATIONAL WEATHER SERVICE ALBANY NY
400 PM EDT FRI JUL 28 2017

NOTE: "FAIR" INDICATES FEW OR NO CLOUDS BELOW 12,000 FEET WITH NO
SIGNIFICANT WEATHER AND/OR NO OBSTRUCTIONS TO VISIBILITY.

NYZ032-033-038>043-046>054-057>066-NYZ062>081-082-084-282100-
EAST


CITY           SKY/WX    TMP DP  RH WIND       PRES   REMARKS
ALBANY         PTSUNNY   77  59  53 NE8       29.85F
GLENS FALLS    FAIR      75  59  57 E7        29.86F
POUGHKEEPSIE   FAIR      81  62  52 NE6       29.81F
NEWBURGH       PTSUNNY   81  68  65 VRB6      29.84F
MONTGOMERY     FAIR      81  65  58 E6        29.82F
WHITE PLAINS   FAIR      82  63  52 CALM      29.82F
ISLIP          CLOUDY    79  68  69 SE8       29.81F
NEW YORK CITY  PTSUNNY   82  66  58 NE8       29.80F
CENTRAL PARK   FAIR      81  69  67 E7        29.83F
$$

NYZ005>009-017-018-044>046-055-056-282100-
CENTRAL


CITY           SKY/WX    TMP DP  RH WIND       PRES   REMARKS
FULTON         FAIR      71  56  58 N12       29.94S
SYRACUSE       CLOUDY    71  57  61 NW15      29.91S
ROME           FAIR      75  57  53 N9        29.89F
ELMIRA         FAIR      74  64  71 N13       29.89S
BINGHAMTON     FAIR      71  57  61 N8        29.90F
$$

NYZ026>034-041>043-087-282100-
NORTH


CITY           SKY/WX    TMP DP  RH WIND       PRES   REMARKS
WATERTOWN      FAIR      71  51  49 N10       29.94F
FORT DRUM      NOT AVBL
OGDENSBURG     FAIR      73  49  42 N9        29.95F
MASSENA        FAIR      73  48  41 N10       29.95F
SARANAC LAKE   FAIR      69  52  54 N6        29.93S
PLATTSBURGH    PTSUNNY   73  56  54 NE9       29.90S
$$

NYZ001>004-010>016-019>021-085-282100-
WEST


CITY           SKY/WX    TMP DP  RH WIND       PRES   REMARKS
NIAGARA FALLS  FAIR      75  56  51 NE15      29.94F
BUFFALO        PTSUNNY   73  57  57 NE15G21   29.94F
DUNKIRK        FAIR      75  62  64 NE21G29   29.90F
JAMESTOWN      PTSUNNY   73  57  56 NE10G18   29.91S
WELLSVILLE     CLOUDY    71  60  68 NE7G16    29.94F
ROCHESTER      PTSUNNY   71  55  56 NE14      29.96S
PENN YAN       FAIR      72  56  57 N9        29.94S
$$

             KEY
       WCI = WIND CHILL INDEX
       VSB = VISIBILITY
       HX  = HEAT INDEX
$$



USA.gov is the U.S. government's official web portal to all federal, state and local government web resources and services.